Location: Unspecified
(0.0000°N, 0.0000°E)
Time: 20:19:17
(UTC+00:00)

CP3 - Visible Passes

Search period start: 15 May 2026 00:00
Search period end: 25 May 2026 00:00
Orbit: 616 x 732 km, 98.5° (Epoch: 14 May)

Date Brightness Start Highest point End Pass type
(mag) Time Alt. Az. Time Alt. Az. Time Alt. Az.
15 May ? 04:16:44 10° N 04:20:00 43° NW 04:20:00 43° NW visible
16 May ? 03:14:54 10° ENE 03:16:12 15° ENE 03:16:12 15° ENE visible
16 May ? 04:52:04 10° NW 04:54:30 17° WNW 04:54:30 17° WNW visible
17 May ? 03:47:39 10° NNE 03:50:42 42° NE 03:50:42 42° NE visible
18 May ? 04:21:45 10° N 04:25:11 40° NW 04:25:11 40° NW visible
19 May ? 03:19:33 10° NE 03:21:22 18° ENE 03:21:22 18° ENE visible
19 May ? 04:57:23 10° NW 04:59:40 15° WNW 04:59:40 15° WNW visible
20 May ? 03:52:32 10° NNE 03:55:51 50° NE 03:55:51 50° NE visible
21 May ? 04:26:47 10° N 04:30:21 37° WNW 04:30:21 37° WNW visible
22 May ? 03:24:14 10° NE 03:26:31 22° ENE 03:26:31 22° ENE visible
22 May ? 05:02:47 10° NW 05:04:44 13° WNW 05:04:49 13° W visible
23 May ? 03:57:25 10° NNE 04:01:00 60° NNE 04:01:00 60° NNE visible
24 May ? 04:31:49 10° NNW 04:35:29 33° WNW 04:35:29 33° WNW visible
